Year,Month,Day,Hour,Minute,Value (Times are PST for temperature in C)
2017,10,12,10,10,7.10
2017,10,12,10,11,7.10
2017,10,12,10,12,7.20
2017,10,12,10,13,7.20
2017,10,12,10,14,7.20
2017,10,12,10,15,7.20
2017,10,12,10,16,7.20
2017,10,12,10,17,7.20
2017,10,12,10,18,7.20
2017,10,12,10,19,7.20
2017,10,12,10,20,7.20
2017,10,12,10,21,7.30
2017,10,12,10,22,7.30
2017,10,12,10,23,7.30
2017,10,12,10,24,7.40
2017,10,12,10,25,7.40
2017,10,12,10,26,7.50
2017,10,12,10,27,7.50
2017,10,12,10,28,7.60
2017,10,12,10,29,7.70
2017,10,12,10,30,7.70
2017,10,12,10,31,7.70
2017,10,12,10,32,7.80
2017,10,12,10,33,7.90
2017,10,12,10,34,7.90
2017,10,12,10,35,7.90
2017,10,12,10,36,7.90
2017,10,12,10,37,8.00
2017,10,12,10,38,8.10
2017,10,12,10,39,8.20
2017,10,12,10,40,8.20
2017,10,12,10,41,8.30
2017,10,12,10,42,8.30
2017,10,12,10,43,8.40
2017,10,12,10,44,8.50
2017,10,12,10,45,8.60
2017,10,12,10,46,8.70
2017,10,12,10,47,8.70
2017,10,12,10,48,8.80
2017,10,12,10,49,8.80
2017,10,12,10,50,8.70
2017,10,12,10,51,8.80
2017,10,12,10,52,8.80
2017,10,12,10,53,8.80
2017,10,12,10,54,8.70
2017,10,12,10,55,8.70
2017,10,12,10,56,8.70
2017,10,12,10,57,8.60
2017,10,12,10,58,8.60
2017,10,12,10,59,8.60
2017,10,12,11,00,8.60
2017,10,12,11,01,8.50
2017,10,12,11,02,8.50
2017,10,12,11,03,8.50
2017,10,12,11,04,8.40
2017,10,12,11,05,8.40
2017,10,12,11,06,8.40
2017,10,12,11,07,8.40
2017,10,12,11,08,8.40
2017,10,12,11,09,8.40
2017,10,12,11,10,8.40
2017,10,12,11,11,8.50
2017,10,12,11,12,8.50
2017,10,12,11,13,8.50
2017,10,12,11,14,8.50
2017,10,12,11,15,8.60
2017,10,12,11,16,8.50
2017,10,12,11,17,8.50
2017,10,12,11,18,8.50
2017,10,12,11,19,8.50
2017,10,12,11,20,8.60
2017,10,12,11,21,8.50
2017,10,12,11,22,8.50
2017,10,12,11,23,8.50
2017,10,12,11,24,8.50
2017,10,12,11,25,8.60
2017,10,12,11,26,8.60
2017,10,12,11,27,8.70
2017,10,12,11,28,8.70
2017,10,12,11,29,8.70
2017,10,12,11,30,8.70
2017,10,12,11,31,8.70
2017,10,12,11,32,8.70
2017,10,12,11,33,8.60
2017,10,12,11,34,8.60
2017,10,12,11,35,8.60
2017,10,12,11,36,8.60
2017,10,12,11,37,8.50
2017,10,12,11,38,8.50
2017,10,12,11,39,8.50
2017,10,12,11,40,8.50
2017,10,12,11,41,8.50
2017,10,12,11,42,8.50
2017,10,12,11,43,8.60
2017,10,12,11,44,8.60
2017,10,12,11,45,8.60
2017,10,12,11,46,8.60
2017,10,12,11,47,8.60
2017,10,12,11,48,8.70
2017,10,12,11,49,8.70
2017,10,12,11,50,8.60
2017,10,12,11,51,8.60
2017,10,12,11,52,8.60
2017,10,12,11,53,8.70
2017,10,12,11,54,8.70
2017,10,12,11,55,8.70
2017,10,12,11,56,8.70
2017,10,12,11,57,8.70
2017,10,12,11,58,8.70
2017,10,12,11,59,8.70
2017,10,12,12,00,8.70
2017,10,12,12,01,8.70
2017,10,12,12,02,8.60
2017,10,12,12,03,8.60
2017,10,12,12,04,8.60
2017,10,12,12,05,8.70
2017,10,12,12,06,8.70
2017,10,12,12,07,8.70
2017,10,12,12,08,8.70
2017,10,12,12,09,8.70
2017,10,12,12,10,8.70
2017,10,12,12,11,8.70
2017,10,12,12,12,8.80
2017,10,12,12,13,8.80
2017,10,12,12,14,8.80
2017,10,12,12,15,8.80
2017,10,12,12,16,8.80
2017,10,12,12,17,8.80
2017,10,12,12,18,8.80
2017,10,12,12,19,8.80
2017,10,12,12,20,8.90
2017,10,12,12,21,8.90
2017,10,12,12,22,9.00
2017,10,12,12,23,9.00
2017,10,12,12,24,9.00
2017,10,12,12,25,9.10
2017,10,12,12,26,9.00
2017,10,12,12,27,9.10
2017,10,12,12,28,9.10
2017,10,12,12,29,9.10
2017,10,12,12,30,9.10
2017,10,12,12,31,9.10
2017,10,12,12,32,9.10
2017,10,12,12,33,9.10
2017,10,12,12,34,9.00
2017,10,12,12,35,8.90
2017,10,12,12,36,8.90
2017,10,12,12,37,8.90
2017,10,12,12,38,8.80
2017,10,12,12,39,8.80
2017,10,12,12,40,8.80
2017,10,12,12,41,8.80
2017,10,12,12,42,8.70
2017,10,12,12,43,8.70
2017,10,12,12,44,8.70
2017,10,12,12,45,8.70
2017,10,12,12,46,8.60
2017,10,12,12,47,8.60
2017,10,12,12,48,8.50
2017,10,12,12,49,8.40
2017,10,12,12,50,8.40
2017,10,12,12,51,8.40
2017,10,12,12,52,8.30
2017,10,12,12,53,8.30
2017,10,12,12,54,8.30
2017,10,12,12,55,8.30
2017,10,12,12,56,8.40
2017,10,12,12,57,8.40
2017,10,12,12,58,8.40
2017,10,12,12,59,8.40
2017,10,12,13,00,8.40
2017,10,12,13,01,8.40
2017,10,12,13,02,8.40
2017,10,12,13,03,8.50
2017,10,12,13,04,8.40
2017,10,12,13,05,8.40
2017,10,12,13,06,8.40
2017,10,12,13,07,8.40
2017,10,12,13,08,8.40
2017,10,12,13,09,8.30
2017,10,12,13,10,8.30
2017,10,12,13,11,8.30
2017,10,12,13,12,8.30
2017,10,12,13,13,8.30
2017,10,12,13,14,8.30
2017,10,12,13,15,8.30
2017,10,12,13,16,8.30
2017,10,12,13,17,8.30
2017,10,12,13,18,8.30
2017,10,12,13,19,8.30
2017,10,12,13,20,8.30
2017,10,12,13,21,8.30
2017,10,12,13,22,8.20
2017,10,12,13,23,8.20
2017,10,12,13,24,8.20
2017,10,12,13,25,8.20
2017,10,12,13,26,8.20
2017,10,12,13,27,8.30
2017,10,12,13,28,8.30
2017,10,12,13,29,8.30
2017,10,12,13,30,8.30
2017,10,12,13,31,8.30
2017,10,12,13,32,8.30
2017,10,12,13,33,8.30
2017,10,12,13,34,8.30
2017,10,12,13,35,8.30
2017,10,12,13,36,8.30
2017,10,12,13,37,8.30
2017,10,12,13,38,8.30
2017,10,12,13,39,8.20
2017,10,12,13,40,8.20
2017,10,12,13,41,8.20
2017,10,12,13,42,8.20
2017,10,12,13,43,8.20
2017,10,12,13,44,8.20
2017,10,12,13,45,8.20
2017,10,12,13,46,8.30
2017,10,12,13,47,8.30
2017,10,12,13,48,8.30
2017,10,12,13,49,8.30
2017,10,12,13,50,8.30
2017,10,12,13,51,8.30
2017,10,12,13,52,8.30
2017,10,12,13,53,8.30
2017,10,12,13,54,8.40
2017,10,12,13,55,8.40
2017,10,12,13,56,8.40
2017,10,12,13,57,8.50
2017,10,12,13,58,8.50
2017,10,12,13,59,8.50
2017,10,12,14,00,8.60
2017,10,12,14,01,8.60
2017,10,12,14,02,8.60
2017,10,12,14,03,8.60
2017,10,12,14,04,8.70
2017,10,12,14,05,8.70
2017,10,12,14,06,8.70
2017,10,12,14,07,8.70
2017,10,12,14,08,8.80
2017,10,12,14,09,8.80
2017,10,12,14,10,8.80
2017,10,12,14,11,8.80
2017,10,12,14,12,8.80
2017,10,12,14,13,8.80
2017,10,12,14,14,8.80
2017,10,12,14,15,8.90
2017,10,12,14,16,8.90
2017,10,12,14,17,8.90
2017,10,12,14,18,8.90
2017,10,12,14,19,8.90
2017,10,12,14,20,8.90
2017,10,12,14,21,8.90
2017,10,12,14,22,8.90
2017,10,12,14,23,8.90
2017,10,12,14,24,8.90
2017,10,12,14,25,8.90
2017,10,12,14,26,8.90
2017,10,12,14,27,8.90
2017,10,12,14,28,8.90
2017,10,12,14,29,8.90
2017,10,12,14,30,8.90
2017,10,12,14,31,8.90
2017,10,12,14,32,8.80
2017,10,12,14,33,8.80
2017,10,12,14,34,8.80
2017,10,12,14,35,8.80
2017,10,12,14,36,8.80
2017,10,12,14,37,8.80
2017,10,12,14,38,8.80
2017,10,12,14,39,8.80
2017,10,12,14,40,8.80
2017,10,12,14,41,8.80
2017,10,12,14,42,8.80
2017,10,12,14,43,8.80
2017,10,12,14,44,8.80
2017,10,12,14,45,8.80
2017,10,12,14,46,8.90
2017,10,12,14,47,8.90
2017,10,12,14,48,8.90
2017,10,12,14,49,8.90
2017,10,12,14,50,8.90
2017,10,12,14,51,8.90
2017,10,12,14,52,8.90
2017,10,12,14,53,9.00
2017,10,12,14,54,9.00
2017,10,12,14,55,9.00
2017,10,12,14,56,9.10
2017,10,12,14,57,9.10
2017,10,12,14,58,9.10
2017,10,12,14,59,9.10
2017,10,12,15,00,9.10
2017,10,12,15,01,9.20
2017,10,12,15,02,9.20
2017,10,12,15,03,9.20
2017,10,12,15,04,9.20
2017,10,12,15,05,9.20
2017,10,12,15,06,9.20
2017,10,12,15,07,9.20
2017,10,12,15,08,9.20
2017,10,12,15,09,9.20
2017,10,12,15,10,9.20
2017,10,12,15,11,9.20
2017,10,12,15,12,9.20
2017,10,12,15,13,9.20
2017,10,12,15,14,9.20
2017,10,12,15,15,9.20
2017,10,12,15,16,9.20
2017,10,12,15,17,9.20
2017,10,12,15,18,9.20
2017,10,12,15,19,9.10
2017,10,12,15,20,9.10
2017,10,12,15,21,9.10
2017,10,12,15,22,9.10
2017,10,12,15,23,9.20
2017,10,12,15,24,9.20
2017,10,12,15,25,9.20
2017,10,12,15,26,9.20
2017,10,12,15,27,9.20
2017,10,12,15,28,9.30
2017,10,12,15,29,9.30
2017,10,12,15,30,9.30
2017,10,12,15,31,9.30
2017,10,12,15,32,9.30
2017,10,12,15,33,9.40
2017,10,12,15,34,9.40
2017,10,12,15,35,9.40
2017,10,12,15,36,9.40
2017,10,12,15,37,9.40
2017,10,12,15,38,9.40
2017,10,12,15,39,9.40
2017,10,12,15,40,9.40
2017,10,12,15,41,9.30
2017,10,12,15,42,9.30
2017,10,12,15,43,9.30
2017,10,12,15,44,9.30
2017,10,12,15,45,9.30
2017,10,12,15,46,9.30
2017,10,12,15,47,9.30
2017,10,12,15,48,9.30
2017,10,12,15,49,9.30
2017,10,12,15,50,9.30
2017,10,12,15,51,9.30
2017,10,12,15,52,9.30
2017,10,12,15,53,9.30
2017,10,12,15,54,9.30
2017,10,12,15,55,9.30
2017,10,12,15,56,9.40
2017,10,12,15,57,9.40
2017,10,12,15,58,9.40
2017,10,12,15,59,9.40
2017,10,12,16,00,9.40
2017,10,12,16,01,9.50
2017,10,12,16,02,9.50
2017,10,12,16,03,9.50
2017,10,12,16,04,9.50
2017,10,12,16,05,9.50
2017,10,12,16,06,9.40
2017,10,12,16,07,9.40
2017,10,12,16,08,9.40
2017,10,12,16,09,9.40
2017,10,12,16,10,9.40
2017,10,12,16,11,9.40
2017,10,12,16,12,9.40
2017,10,12,16,13,9.40
2017,10,12,16,14,9.40
2017,10,12,16,15,9.40
2017,10,12,16,16,9.40
2017,10,12,16,17,9.40
2017,10,12,16,18,9.40
2017,10,12,16,19,9.30
2017,10,12,16,20,9.30
2017,10,12,16,21,9.30
2017,10,12,16,22,9.30
2017,10,12,16,23,9.30
2017,10,12,16,24,9.30
2017,10,12,16,25,9.20
2017,10,12,16,26,9.20
2017,10,12,16,27,9.20
2017,10,12,16,28,9.20
2017,10,12,16,29,9.20
2017,10,12,16,30,9.20
2017,10,12,16,31,9.20
2017,10,12,16,32,9.20
2017,10,12,16,33,9.20
2017,10,12,16,34,9.20
2017,10,12,16,35,9.20
2017,10,12,16,36,9.30
2017,10,12,16,37,9.30
2017,10,12,16,38,9.30
2017,10,12,16,39,9.30
2017,10,12,16,40,9.30
2017,10,12,16,41,9.30
2017,10,12,16,42,9.30
2017,10,12,16,43,9.30
2017,10,12,16,44,9.30
2017,10,12,16,45,9.30
2017,10,12,16,46,9.30
2017,10,12,16,47,9.20
2017,10,12,16,48,9.20
2017,10,12,16,49,9.20
2017,10,12,16,50,9.20
2017,10,12,16,51,9.20
2017,10,12,16,52,9.10
2017,10,12,16,53,9.10
2017,10,12,16,54,9.10
2017,10,12,16,55,9.10
2017,10,12,16,56,9.10
2017,10,12,16,57,9.00
2017,10,12,16,58,9.00
2017,10,12,16,59,9.00
2017,10,12,17,00,9.00
2017,10,12,17,01,9.00
2017,10,12,17,02,9.00
2017,10,12,17,03,8.90
2017,10,12,17,04,8.90
2017,10,12,17,05,8.90
2017,10,12,17,06,8.90
2017,10,12,17,07,8.90
2017,10,12,17,08,8.90
2017,10,12,17,09,8.90
2017,10,12,17,10,8.90
2017,10,12,17,11,8.90
2017,10,12,17,12,8.90
2017,10,12,17,13,8.90
2017,10,12,17,14,8.90
2017,10,12,17,15,8.90
2017,10,12,17,16,8.90
2017,10,12,17,17,8.90
2017,10,12,17,18,8.90
2017,10,12,17,19,8.90
2017,10,12,17,20,8.90
2017,10,12,17,21,8.90
2017,10,12,17,22,8.90
2017,10,12,17,23,8.90
2017,10,12,17,24,8.90
2017,10,12,17,25,8.90
2017,10,12,17,26,8.90
2017,10,12,17,27,8.90
2017,10,12,17,28,8.90
2017,10,12,17,29,8.90
2017,10,12,17,30,8.90
2017,10,12,17,31,8.90
2017,10,12,17,32,8.90
2017,10,12,17,33,8.90
2017,10,12,17,34,8.90
2017,10,12,17,35,8.90
2017,10,12,17,36,8.90
2017,10,12,17,37,8.90
2017,10,12,17,38,8.90
2017,10,12,17,39,8.90
2017,10,12,17,40,8.90
2017,10,12,17,41,8.90
2017,10,12,17,42,8.80
2017,10,12,17,43,8.80
2017,10,12,17,44,8.80
2017,10,12,17,45,8.80
2017,10,12,17,46,8.80
2017,10,12,17,47,8.80
2017,10,12,17,48,8.80
2017,10,12,17,49,8.80
2017,10,12,17,50,8.80
2017,10,12,17,51,8.80
2017,10,12,17,52,8.80
2017,10,12,17,53,8.80
2017,10,12,17,54,8.80
2017,10,12,17,55,8.80
2017,10,12,17,56,8.80
2017,10,12,17,57,8.80
2017,10,12,17,58,8.80
2017,10,12,17,59,8.70
2017,10,12,18,00,8.70
2017,10,12,18,01,8.70
2017,10,12,18,02,8.70
2017,10,12,18,03,8.70
2017,10,12,18,04,8.70
2017,10,12,18,05,8.70
2017,10,12,18,06,8.70
2017,10,12,18,07,8.70
2017,10,12,18,08,8.70
2017,10,12,18,09,8.70
2017,10,12,18,10,8.70
2017,10,12,18,11,8.70
2017,10,12,18,12,8.70
2017,10,12,18,13,8.70
2017,10,12,18,14,8.70
2017,10,12,18,15,8.60
2017,10,12,18,16,8.60
2017,10,12,18,17,8.60
2017,10,12,18,18,8.60
2017,10,12,18,19,8.60
2017,10,12,18,20,8.60
2017,10,12,18,21,8.60
2017,10,12,18,22,8.60
2017,10,12,18,23,8.60
2017,10,12,18,24,8.60
2017,10,12,18,25,8.60
2017,10,12,18,26,8.60
2017,10,12,18,27,8.60
2017,10,12,18,28,8.60
2017,10,12,18,29,8.60
2017,10,12,18,30,8.60
2017,10,12,18,31,8.60
2017,10,12,18,32,8.60
2017,10,12,18,33,8.60
2017,10,12,18,34,8.60
2017,10,12,18,35,8.60
2017,10,12,18,36,8.60
2017,10,12,18,37,8.60
2017,10,12,18,38,8.60
2017,10,12,18,39,8.60
2017,10,12,18,40,8.60
2017,10,12,18,41,8.60
2017,10,12,18,42,8.60
2017,10,12,18,43,8.50
2017,10,12,18,44,8.60
2017,10,12,18,45,8.50
2017,10,12,18,46,8.50
2017,10,12,18,47,8.50
2017,10,12,18,48,8.50
2017,10,12,18,49,8.50
2017,10,12,18,50,8.50
2017,10,12,18,51,8.50
2017,10,12,18,52,8.50
2017,10,12,18,53,8.50
2017,10,12,18,54,8.50
2017,10,12,18,55,8.50
2017,10,12,18,56,8.50
2017,10,12,18,57,8.40
2017,10,12,18,58,8.40
2017,10,12,18,59,8.40
2017,10,12,19,00,8.40
2017,10,12,19,01,8.40
2017,10,12,19,02,8.40
2017,10,12,19,03,8.40
2017,10,12,19,04,8.40
2017,10,12,19,05,8.40
2017,10,12,19,06,8.40
2017,10,12,19,07,8.40
2017,10,12,19,08,8.40
2017,10,12,19,09,8.40
2017,10,12,19,10,8.40
2017,10,12,19,11,8.40
2017,10,12,19,12,8.40
2017,10,12,19,13,8.40
2017,10,12,19,14,8.40
2017,10,12,19,15,8.40
2017,10,12,19,16,8.30
2017,10,12,19,17,8.30
2017,10,12,19,18,8.30
2017,10,12,19,19,8.30
2017,10,12,19,20,8.40
2017,10,12,19,21,8.30
2017,10,12,19,22,8.20
2017,10,12,19,23,7.90
2017,10,12,19,24,7.70
2017,10,12,19,25,7.50
2017,10,12,19,26,7.30
2017,10,12,19,27,7.20
2017,10,12,19,28,7.00
2017,10,12,19,29,6.90
2017,10,12,19,30,6.70
2017,10,12,19,31,6.60
2017,10,12,19,32,6.50
2017,10,12,19,33,6.30
2017,10,12,19,34,6.30
2017,10,12,19,35,6.20
2017,10,12,19,36,6.10
2017,10,12,19,37,6.00
2017,10,12,19,38,6.00
2017,10,12,19,39,6.00
2017,10,12,19,40,5.90
2017,10,12,19,41,5.90
2017,10,12,19,42,5.90
2017,10,12,19,43,5.90
2017,10,12,19,44,5.90
2017,10,12,19,45,5.90
2017,10,12,19,46,5.90
2017,10,12,19,47,5.90
2017,10,12,19,48,5.90
2017,10,12,19,49,5.90
2017,10,12,19,50,5.90
2017,10,12,19,51,5.90
2017,10,12,19,52,5.90
2017,10,12,19,53,5.90
2017,10,12,19,54,5.90
2017,10,12,19,55,5.90
2017,10,12,19,56,5.90
2017,10,12,19,57,5.90
2017,10,12,19,58,5.90
2017,10,12,19,59,5.90
2017,10,12,20,00,5.90
2017,10,12,20,01,5.90
2017,10,12,20,02,5.90
2017,10,12,20,03,5.90
2017,10,12,20,04,5.90
2017,10,12,20,05,5.90
2017,10,12,20,06,5.90
2017,10,12,20,07,5.90
2017,10,12,20,08,5.90
2017,10,12,20,09,5.90
2017,10,12,20,10,5.90
2017,10,12,20,11,5.90
2017,10,12,20,12,5.90
2017,10,12,20,13,5.90
2017,10,12,20,14,5.90
2017,10,12,20,15,5.90
2017,10,12,20,16,5.90
2017,10,12,20,17,5.90
2017,10,12,20,18,5.90
2017,10,12,20,19,5.90
2017,10,12,20,20,5.90
2017,10,12,20,21,5.90
2017,10,12,20,22,5.90
2017,10,12,20,23,5.90
2017,10,12,20,24,5.80
2017,10,12,20,25,5.90
2017,10,12,20,26,5.90
2017,10,12,20,27,5.90
2017,10,12,20,28,5.90
2017,10,12,20,29,5.90
2017,10,12,20,30,5.90
2017,10,12,20,31,5.90
2017,10,12,20,32,5.90
2017,10,12,20,33,5.90
2017,10,12,20,34,6.00
2017,10,12,20,35,6.00
2017,10,12,20,36,6.00
2017,10,12,20,37,6.00
2017,10,12,20,38,6.00
2017,10,12,20,39,6.00
2017,10,12,20,40,6.00
2017,10,12,20,41,6.00
2017,10,12,20,42,6.00
2017,10,12,20,43,6.00
2017,10,12,20,44,6.00
2017,10,12,20,45,6.00
2017,10,12,20,46,6.00
2017,10,12,20,47,6.00
2017,10,12,20,48,5.90
2017,10,12,20,49,5.90
2017,10,12,20,50,5.90
2017,10,12,20,51,5.90
2017,10,12,20,52,5.90
2017,10,12,20,53,5.90
2017,10,12,20,54,5.90
2017,10,12,20,55,5.90
2017,10,12,20,56,5.90
2017,10,12,20,57,5.90
2017,10,12,20,58,5.90
2017,10,12,20,59,5.90
2017,10,12,21,00,5.90
2017,10,12,21,01,5.80
2017,10,12,21,02,5.80
2017,10,12,21,03,5.80
2017,10,12,21,04,5.80
2017,10,12,21,05,5.80
2017,10,12,21,06,5.80
2017,10,12,21,07,5.80
2017,10,12,21,08,5.80
2017,10,12,21,09,5.80
2017,10,12,21,10,5.80
2017,10,12,21,11,5.80
2017,10,12,21,12,5.80
2017,10,12,21,13,5.70
2017,10,12,21,14,5.70
2017,10,12,21,15,5.70
2017,10,12,21,16,5.70
2017,10,12,21,17,5.70
2017,10,12,21,18,5.70
2017,10,12,21,19,5.60
2017,10,12,21,20,5.60
2017,10,12,21,21,5.60
2017,10,12,21,22,5.60
2017,10,12,21,23,5.60
2017,10,12,21,24,5.60
2017,10,12,21,25,5.50
2017,10,12,21,26,5.50
2017,10,12,21,27,5.50
2017,10,12,21,28,5.50
2017,10,12,21,29,5.40
2017,10,12,21,30,5.40
2017,10,12,21,31,5.40
2017,10,12,21,32,5.40
2017,10,12,21,33,5.40
2017,10,12,21,34,5.30
2017,10,12,21,35,5.30
2017,10,12,21,36,5.30
2017,10,12,21,37,5.30
2017,10,12,21,38,5.30
2017,10,12,21,39,5.30
2017,10,12,21,40,5.30
2017,10,12,21,41,5.20
2017,10,12,21,42,5.20
2017,10,12,21,43,5.20
2017,10,12,21,44,5.20
2017,10,12,21,45,5.10
2017,10,12,21,46,5.10
2017,10,12,21,47,5.10
2017,10,12,21,48,5.10
2017,10,12,21,49,5.10
2017,10,12,21,50,5.10
2017,10,12,21,51,5.10
2017,10,12,21,52,5.00
2017,10,12,21,53,5.00
2017,10,12,21,54,4.90
2017,10,12,21,55,4.90
2017,10,12,21,56,4.90
2017,10,12,21,57,4.90
2017,10,12,21,58,4.80
2017,10,12,21,59,4.80
2017,10,12,22,00,4.80
2017,10,12,22,01,4.80
2017,10,12,22,02,4.80
2017,10,12,22,03,4.70
2017,10,12,22,04,4.70
2017,10,12,22,05,4.70
2017,10,12,22,06,4.70
2017,10,12,22,07,4.70
2017,10,12,22,08,4.70
2017,10,12,22,09,4.70
2017,10,12,22,10,4.60
2017,10,12,22,11,4.60
2017,10,12,22,12,4.60
2017,10,12,22,13,4.60
2017,10,12,22,14,4.60
2017,10,12,22,15,4.60
2017,10,12,22,16,4.60
2017,10,12,22,17,4.60
2017,10,12,22,18,4.60
2017,10,12,22,19,4.50
2017,10,12,22,20,4.50
2017,10,12,22,21,4.50
2017,10,12,22,22,4.50
2017,10,12,22,23,4.50
2017,10,12,22,24,4.50
2017,10,12,22,25,4.50
2017,10,12,22,26,4.50
2017,10,12,22,27,4.40
2017,10,12,22,28,4.40
2017,10,12,22,29,4.40
2017,10,12,22,30,4.40
2017,10,12,22,31,4.40
2017,10,12,22,32,4.40
2017,10,12,22,33,4.40
2017,10,12,22,34,4.40
2017,10,12,22,35,4.30
2017,10,12,22,36,4.30
2017,10,12,22,37,4.30
2017,10,12,22,38,4.30
2017,10,12,22,39,4.30
2017,10,12,22,40,4.30
2017,10,12,22,41,4.30
2017,10,12,22,42,4.30
2017,10,12,22,43,4.20
2017,10,12,22,44,4.20
2017,10,12,22,45,4.20
2017,10,12,22,46,4.20
2017,10,12,22,47,4.20
2017,10,12,22,48,4.20
2017,10,12,22,49,4.10
2017,10,12,22,50,4.10
2017,10,12,22,51,4.10
2017,10,12,22,52,4.10
2017,10,12,22,53,4.10
2017,10,12,22,54,4.00
2017,10,12,22,55,4.10
2017,10,12,22,56,4.10
2017,10,12,22,57,4.10
2017,10,12,22,58,4.10
2017,10,12,22,59,4.10
2017,10,12,23,00,4.00
2017,10,12,23,01,4.00
2017,10,12,23,02,4.00
2017,10,12,23,03,4.00
2017,10,12,23,04,4.00
2017,10,12,23,05,4.00
2017,10,12,23,06,4.00
2017,10,12,23,07,4.00
2017,10,12,23,08,4.00
2017,10,12,23,09,4.00
2017,10,12,23,10,3.90
2017,10,12,23,11,3.90
2017,10,12,23,12,3.90
2017,10,12,23,13,3.90
2017,10,12,23,14,3.80
2017,10,12,23,15,3.80
2017,10,12,23,16,3.80
2017,10,12,23,17,3.80
2017,10,12,23,18,3.70
2017,10,12,23,19,3.70
2017,10,12,23,20,3.70
2017,10,12,23,21,3.70
2017,10,12,23,22,3.70
2017,10,12,23,23,3.70
2017,10,12,23,24,3.70
2017,10,12,23,25,3.70
2017,10,12,23,26,3.60
2017,10,12,23,27,3.60
2017,10,12,23,28,3.60
2017,10,12,23,29,3.60
2017,10,12,23,30,3.60
2017,10,12,23,31,3.70
2017,10,12,23,32,3.70
2017,10,12,23,33,3.70
2017,10,12,23,34,3.70
2017,10,12,23,35,3.70
2017,10,12,23,36,3.70
2017,10,12,23,37,3.70
2017,10,12,23,38,3.70
2017,10,12,23,39,3.70
2017,10,12,23,40,3.70
2017,10,12,23,41,3.70
2017,10,12,23,42,3.70
2017,10,12,23,43,3.70
2017,10,12,23,44,3.70
2017,10,12,23,45,3.70
2017,10,12,23,46,3.70
2017,10,12,23,47,3.70
2017,10,12,23,48,3.70
2017,10,12,23,49,3.70
2017,10,12,23,50,3.70
2017,10,12,23,51,3.70
2017,10,12,23,52,3.70
2017,10,12,23,53,3.80
2017,10,12,23,54,3.80
2017,10,12,23,55,3.80
2017,10,12,23,56,3.90
2017,10,12,23,57,3.90
2017,10,12,23,58,3.90
2017,10,12,23,59,3.90
